| time (UTC) | temp C | wind direction | speed KPH | gust KPH | rain 1hr cm | rain 24hr cm | rain mn cm | humidity % | barometer mb |
| 20260504204625 | 20 | 231 | 3.2 | 4.8 | 0.00 | 0.00 | 0.00 | 36 | 1006.7 |
| 20260504203622 | 21 | 332 | 3.2 | 3.2 | 0.00 | 0.00 | 0.00 | 35 | 1006.9 |
| 20260504202619 | 20 | 198 | 4.8 | 4.8 | 0.00 | 0.00 | 0.00 | 35 | 1006.5 |
| 20260504201619 | 20 | 6 | 1.6 | 4.8 | 0.00 | 0.00 | 0.00 | 36 | 1006.7 |
| 20260504200614 | 20 | 309 | 3.2 | 4.8 | 0.00 | 0.00 | 0.00 | 35 | 1006.9 |
| 20260504195612 | 21 | 187 | 8.0 | 9.7 | 0.00 | 0.00 | 0.00 | 34 | 1006.5 |
| 20260504194611 | 20 | 285 | 3.2 | 3.2 | 0.00 | 0.00 | 0.00 | 33 | 1006.6 |
| 20260504193609 | 22 | 130 | 3.2 | 4.8 | 0.00 | 0.00 | 0.00 | 32 | 1006.7 |
| 20260504192606 | 21 | 217 | 4.8 | 4.8 | 0.00 | 0.00 | 0.00 | 33 | 1006.8 |
| 20260504191601 | 21 | 203 | 4.8 | 6.4 | 0.00 | 0.00 | 0.00 | 33 | 1006.7 |
| 20260504190559 | 21 | 202 | 8.0 | 9.7 | 0.00 | 0.00 | 0.00 | 33 | 1006.8 |
| 20260504185559 | 21 | 260 | 1.6 | 3.2 | 0.00 | 0.00 | 0.00 | 34 | 1007.0 |
| 20260504184556 | 21 | 256 | 4.8 | 6.4 | 0.00 | 0.00 | 0.00 | 36 | 1007.1 |
| 20260504183555 | 21 | 259 | 3.2 | 3.2 | 0.00 | 0.00 | 0.00 | 34 | 1007.3 |
| 20260504182555 | 21 | 235 | 4.8 | 4.8 | 0.00 | 0.00 | 0.00 | 33 | 1007.4 |
| 20260504181555 | 21 | 351 | 4.8 | 6.4 | 0.00 | 0.00 | 0.00 | 34 | 1007.3 |
| 20260504180552 | 20 | 205 | 12.9 | 14.5 | 0.00 | 0.00 | 0.00 | 32 | 1007.4 |
| 20260504175548 | 20 | 212 | 4.8 | 6.4 | 0.00 | 0.00 | 0.00 | 32 | 1007.3 |
| 20260504174548 | 20 | 16 | 6.4 | 14.5 | 0.00 | 0.00 | 0.00 | 32 | 1007.4 |
| 20260504173547 | 21 | 203 | 9.7 | 12.9 | 0.00 | 0.00 | 0.00 | 33 | 1007.5 |
| 20260504172547 | 20 | 287 | 0.0 | 0.0 | 0.00 | 0.00 | 0.00 | 34 | 1007.7 |
| 20260504171546 | 20 | 212 | 3.2 | 3.2 | 0.00 | 0.00 | 0.00 | 35 | 1007.9 |
| 20260504170545 | 20 | 219 | 1.6 | 3.2 | 0.00 | 0.00 | 0.00 | 33 | 1007.6 |
| 20260504150519 | 17 | 248 | 1.6 | 1.6 | 0.00 | 0.00 | 0.00 | 41 | 1009.3 |
| 20260504140504 | 16 | 295 | 3.2 | 4.8 | 0.00 | 0.00 | 0.00 | 42 | 1009.3 |
| 20260504130458 | 13 | 218 | 3.2 | 3.2 | 0.00 | 0.00 | 0.00 | 53 | 1009.9 |
| 20260504110432 | 5 | 260 | 0.0 | 0.0 | 0.00 | 0.00 | 0.00 | 81 | 1010.3 |
| 20260504100418 | 3 | 285 | 0.0 | 0.0 | 0.00 | 0.00 | 0.00 | 84 | 1010.3 |
| 20260504081354 | 5 | 285 | 0.0 | 0.0 | 0.00 | 0.00 | 0.00 | 73 | 1010.0 |
| 20260504080353 | 5 | 285 | 0.0 | 0.0 | 0.00 | 0.00 | 0.00 | 76 | 1009.9 |
| 20260504070344 | 5 | 285 | 0.0 | 0.0 | 0.00 | 0.00 | 0.00 | 74 | 1009.6 |
| 20260504050317 | 4 | 285 | 0.0 | 0.0 | 0.00 | 0.00 | 0.00 | 80 | 1009.9 |
| 20260504045314 | 3 | 285 | 0.0 | 0.0 | 0.00 | 0.00 | 0.00 | 79 | 1009.9 |
| 20260504044314 | 3 | 285 | 0.0 | 0.0 | 0.00 | 0.00 | 0.00 | 77 | 1010.1 |
| 20260504043314 | 3 | 285 | 0.0 | 0.0 | 0.00 | 0.00 | 0.00 | 80 | 1010.1 |
| 20260504042314 | 3 | 285 | 0.0 | 0.0 | 0.00 | 0.00 | 0.00 | 79 | 1010.1 |
| 20260504041312 | 2 | 285 | 0.0 | 0.0 | 0.00 | 0.00 | 0.00 | 78 | 1010.2 |
| 20260504040312 | 2 | 285 | 0.0 | 0.0 | 0.00 | 0.00 | 0.00 | 76 | 1009.9 |
| 20260504035311 | 2 | 285 | 0.0 | 0.0 | 0.00 | 0.00 | 0.00 | 81 | 1010.0 |
| 20260504034306 | 2 | 285 | 0.0 | 0.0 | 0.00 | 0.00 | 0.00 | 77 | 1009.8 |
| 20260504033301 | 2 | 285 | 0.0 | 0.0 | 0.00 | 0.00 | 0.00 | 82 | 1009.7 |
| 20260504032300 | 2 | 285 | 0.0 | 0.0 | 0.00 | 0.00 | 0.00 | 83 | 1009.6 |
| 20260504031300 | 1 | 285 | 0.0 | 0.0 | 0.00 | 0.00 | 0.00 | 82 | 1009.5 |
| 20260504030259 | 1 | 285 | 0.0 | 0.0 | 0.00 | 0.00 | 0.00 | 80 | 1009.6 |
| 20260504025259 | 2 | 285 | 0.0 | 0.0 | 0.00 | 0.00 | 0.00 | 80 | 1009.5 |
| 20260504024258 | 2 | 284 | 0.0 | 0.0 | 0.00 | 0.00 | 0.00 | 79 | 1009.6 |
| 20260504023257 | 2 | 285 | 0.0 | 0.0 | 0.00 | 0.00 | 0.00 | 77 | 1009.6 |
| 20260504022255 | 2 | 285 | 0.0 | 0.0 | 0.00 | 0.00 | 0.00 | 77 | 1009.6 |
| 20260504021250 | 2 | 284 | 0.0 | 0.0 | 0.00 | 0.00 | 0.00 | 76 | 1009.3 |
| 20260504020249 | 3 | 285 | 0.0 | 0.0 | 0.00 | 0.00 | 0.00 | 75 | 1009.3 |
| 20260504015247 | 3 | 285 | 0.0 | 0.0 | 0.00 | 0.00 | 0.00 | 75 | 1009.4 |
| 20260504014246 | 3 | 285 | 0.0 | 0.0 | 0.00 | 0.00 | 0.00 | 75 | 1009.6 |
| 20260504013241 | 3 | 285 | 0.0 | 0.0 | 0.00 | 0.00 | 0.00 | 75 | 1009.3 |
| 20260504012241 | 4 | 285 | 0.0 | 0.0 | 0.00 | 0.00 | 0.00 | 73 | 1009.1 |
| 20260504011240 | 4 | 284 | 0.0 | 0.0 | 0.00 | 0.00 | 0.00 | 75 | 1009.0 |
| 20260504010238 | 5 | 284 | 0.0 | 0.0 | 0.00 | 0.00 | 0.00 | 73 | 1008.8 |
| 20260504005238 | 5 | 285 | 0.0 | 0.0 | 0.00 | 0.00 | 0.00 | 65 | 1008.8 |
| 20260504004238 | 5 | 285 | 0.0 | 0.0 | 0.00 | 0.00 | 0.00 | 66 | 1008.7 |
| 20260504003237 | 6 | 285 | 0.0 | 0.0 | 0.00 | 0.00 | 0.00 | 60 | 1008.6 |
| 20260504002237 | 6 | 285 | 0.0 | 0.0 | 0.00 | 0.00 | 0.00 | 59 | 1008.5 |
| 20260504001237 | 7 | 285 | 0.0 | 0.0 | 0.00 | 0.00 | 0.00 | 58 | 1008.2 |
| 20260504000236 | 7 | 285 | 0.0 | 0.0 | 0.00 | 0.00 | 0.00 | 49 | 1008.3 |
| 20260503235231 | 8 | 285 | 0.0 | 0.0 | 0.00 | 0.00 | 0.00 | 49 | 1008.2 |
| 20260503234227 | 8 | 303 | 1.6 | 1.6 | 0.00 | 0.00 | 0.00 | 46 | 1008.0 |
| 20260503233225 | 8 | 300 | 0.0 | 0.0 | 0.00 | 0.00 | 0.00 | 46 | 1008.1 |
| 20260503232225 | 9 | 297 | 0.0 | 0.0 | 0.00 | 0.00 | 0.00 | 45 | 1008.1 |
| 20260503231220 | 10 | 315 | 3.2 | 3.2 | 0.00 | 0.00 | 0.00 | 45 | 1007.9 |
| 20260503230220 | 10 | 303 | 3.2 | 3.2 | 0.00 | 0.00 | 0.00 | 43 | 1007.9 |
| 20260503225217 | 10 | 324 | 3.2 | 3.2 | 0.00 | 0.00 | 0.00 | 44 | 1007.6 |
| 20260503224212 | 10 | 21 | 1.6 | 3.2 | 0.00 | 0.00 | 0.00 | 43 | 1007.6 |
| 20260503223207 | 10 | 301 | 1.6 | 1.6 | 0.00 | 0.00 | 0.00 | 43 | 1007.4 |
| 20260503222207 | 10 | 326 | 3.2 | 6.4 | 0.00 | 0.00 | 0.00 | 41 | 1007.5 |
| 20260503221202 | 10 | 312 | 0.0 | 0.0 | 0.00 | 0.00 | 0.00 | 42 | 1007.3 |
| 20260503220201 | 10 | 303 | 4.8 | 6.4 | 0.00 | 0.00 | 0.00 | 43 | 1007.3 |
| 20260503215201 | 10 | 335 | 4.8 | 6.4 | 0.00 | 0.00 | 0.00 | 42 | 1007.4 |
| 20260503214201 | 10 | 289 | 3.2 | 6.4 | 0.00 | 0.00 | 0.00 | 41 | 1007.1 |
| 20260503213157 | 10 | 264 | 1.6 | 1.6 | 0.00 | 0.00 | 0.00 | 43 | 1007.3 |
| 20260503212157 | 11 | 276 | 1.6 | 3.2 | 0.00 | 0.00 | 0.00 | 42 | 1007.0 |
| 20260503211155 | 10 | 39 | 3.2 | 4.8 | 0.00 | 0.00 | 0.00 | 41 | 1006.8 |
| 20260503210154 | 10 | 214 | 6.4 | 11.3 | 0.00 | 0.00 | 0.00 | 41 | 1006.9 |